Location: Unspecified
(0.0000°N, 0.0000°E)
Time: 13:35:07
(UTC+00:00)

Vanguard 1 - Pass Details

Date: 16 December 2017
Orbit: 650 x 3833 km, 34.2° (Epoch: 22 April)

Event Time Altitude Azimuth Distance (km) Brightness Sun altitude
Rises 02:15:49 0° 213° (SSW) 5,309 13.9 -48.7°
Reaches altitude 10° 02:19:25 10° 202° (SSW) 4,723 13.6 -48.0°
Maximum altitude 02:32:10 33° 142° (SE) 4,299 13.5 -45.4°
Drops below altitude 10° 02:50:42 10° 85° (E) 6,870 14.8 -41.5°
Sets 02:57:19 0° 77° (ENE) 7,972 15.2 -40.1°
